Portada
METAR-TAF:

METAR-TAF

Aeroports :

Gilmer Municipal Airport (Fox Stephens Field)

Gilmer, Texas, Estats Units d'Amèrica

latitud: 32-41-56N, longitud: 094-56-55W, altitud: 127 m

Observació

L'informe es va fer fa 17 minuts, a les 16:35 UTC
Vent 7 kt del Oest
Temperatura 17°C
Humitat 82%
Pressió 1006 hPa
Visibilitat: 16.1 km
Núvols disperses a una alçada de 6000 ft
Núvols disperses a una alçada de 7500 ft

METAR: KJXI 251635Z AUTO 26007KT 10SM SCT060 SCT075 17/14 A2970 RMK AO2 T01660141

Hora: 10:52 (16:52 UTC)


TAF: manca

Observacions i pronòstics meteorològics de més de 4000 aeroports (METAR i TAF).

Les estacions disponibles són els punts grocs i vermells al mapa.

Posi el ratolí al punt desitjat per veure el nom de l'estació.

Feu clic per veure les observacions i els pronòstics meteorològics.

Per canviar el mapa: feu clic els botons verds amb una creu de color negre per apropar; al botó verd amb un guió per allunyar la imatge; o en les fletxes verdes per a mapes adjacents.


METAR-TAF: